STARLINK-37432, 68896

Orbit data source: Space-Track

STARLINK-37432, 68896 is a payload satellite owned by SpaceX/Seattle (US) in SSO that was launched on Thu, 30 Apr 2026 UTC via an FALCON 9 launch vehicle from the Air Force Western Test Range (AFWTR). Payload-class satellites include a variety of spacecraft equipped with specific instruments for various scientific and technological missions. These include communications satellites like Starlink; space stations such as the ISS; scientific satellites like the Hubble; Earth observation satellites from companies like Planet Labs, Umbra, and HawkEye 360; GPS; miniature CubeSats for education and research; and military/defense satellites.

Loading next visibility...
Identifier
68896, 2026-097B
Orbit
SSO
Country
Flag of USUS
Related business
Manufacturer
SpaceX/Seattle
Mission
Operational spacecraft
Bus & Motor
STARLINK V2MO, Unknown motor
Mass
575 kg wet, ~530 kg dry
Launch date (UTC)
2026-04-30 (3 weeks ago)
Launch vehicle
FALCON 9
Launch site
Air Force Western Test Range (AFWTR)
Object type
Payload
Rocket body
Debris
Shape & HBR
Unknown
Radar Cross Section
RCS unknown

Expand to show TLE details & history
Last TLE update: 9 hours ago

TLE from 9 hours ago
0 STARLINK-37432
1 68896U 26097B   26140.58335648 -.02299607  00000-0 -28882-1 0  9992
2 68896  97.2845 336.3521 0001817  68.7909  26.4284 15.62914020  4485
Epoch: 2026-05-20T14:00Z
TLE epoch observation values (Epoch: 2026-05-20T14:00:01.999Z)
Latitude
81.08704°
Longitude
122.25078°
Altitude
391.599 km
Speed
7.683 km/s
True Right ascension
14h 01m 59s
True Declination
81° 01' 53"
Sunlit
Object was in daylight at epoch
Visualization orbit readout
Latitude
Unknown
Longitude
Unknown
Altitude
Unknown
Speed
Unknown
Apparent Right ascension
Unknown
Apparent Declination
Unknown
Sunlit
N/A
Visualization observer readout
Local Sidereal Time
07:45:33
Azimuth
Unknown
Elevation
Unknown
Doppler factor
Unknown
Orbital elements
Apogee altitude
377.376 km
Perigee altitude
374.921 km
Semi-major axis
6,754.285 km
Eccentricity
0.00018
Inclination
97.2845°
RAAN
336.3521°
Arg. of periapsis
68.7909°
True anomaly
26.43767°
Mean anomaly
26.4284°
Eccentric anomaly
26.43303°
Mean motion
3.90998 °/min
Orbital period
92.07 mins
BSTAR
-0.028882
Loading maneuver chart data...
Computing Atmospheric mass density...
Loading historical data...
Loading historical data...
Loading historical data...
Loading historical data...
Loading historical data...
Loading historical data...
Loading historical data...

Documentation

Showing up to 5 results
|